Zurück zum Katalog

THORAD AGENA D DEB

AktivPO
NORAD 4739·DEBRIS·🇺🇸 United States

Gestartet Apr 8, 1970 von Vandenberg Space Force Base

Loading…

Nächste Überflüge (nächste 24 Stunden)

TLE

AktuellSource: Space-Track

Epoche: Sep 14, 2026, 10:32 UTC

1 04739U 70025CN  26257.43934872  .00000823  00000-0  60904-3 0  9994
2 04739  99.9392 134.2209 0000390  43.9181 132.0934 13.98661896826640

Verfolge THORAD AGENA D DEB in Echtzeit mit AllMySat

Download on the App Store